Hourly Data Report for September 11, 2017

All times are specified in Local Standard Time (LST). Add 1 hour to adjust for Daylight Saving Time where and when it is observed.

SATURNA ISLAND CS
BRITISH COLUMBIA

48°47'02.067" N
123°02'41.082" W
24.40 m
1017101
71473
WEZ

Download Data

Hourly Data (September 2017)
Hourly Data Report for September 11, 2017
Temp Definition
°C
Dew Point Temp Definition
°C
Rel Hum Definition
%
Wind Dir Definition
10's deg

Wind Spd Definition
km/h
Visibility Definition
km
Stn Press Definition
kPa
Hmdx Definition


Wind Chill Definition


Weather Definition


TIME
00:00 13.9 10.4 79 17 3   102.08     LegendNANA
01:00 13.9 9.9 77 22 7   102.05     LegendNANA
02:00 12.4 9.5 82   0   102.01     LegendNANA
03:00 11.7 9.9 89 23 12   101.98     LegendNANA
04:00 11.7 10.3 91 25 3   101.97     LegendNANA
05:00 11.2 9.5 90 21 10   101.94     LegendNANA
06:00 11.4 10.1 92 20 10   101.93     LegendNANA
07:00 12.8 11.2 90 21 9   101.90     LegendNANA
08:00 14.3 10.3 77 20 7   101.84     LegendNANA
09:00 14.4 10.8 79 12 6   101.81     LegendNANA
10:00 15.6 10.5 72 12 5   101.81     LegendNANA
11:00 16.9 11.3 69 17 4   101.75     LegendNANA
12:00 18.1 10.2 60 18 4   101.67     LegendNANA
13:00 20.3 10.6 54 21 9   101.61     LegendNANA
14:00 21.5 8.4 43 20 7   101.54     LegendNANA
15:00 22.5 9.6 44 21 16   101.48     LegendNANA
16:00 20.1 10.5 54 22 20   101.42     LegendNANA
17:00 20.0 10.0 52 22 20   101.35     LegendNANA
18:00 19.3 10.0 55 23 15   101.33     LegendNANA
19:00 18.5 10.4 59 29 4   101.34     LegendNANA
20:00 15.7 10.0 69 22 19   101.34     LegendNANA
21:00 15.5 10.7 73 25 10   101.34     LegendNANA
22:00 14.8 10.4 75 22 10   101.33     LegendNANA
23:00 15.0 11.0 77 24 7   101.33     LegendNANA

Notes on Data Quality.

Legend

  • E = Estimated
  • M = Missing
  • NA = Not Available
  • ‡ = Partner data that is not subject to review by the National Climate Archives
Date modified: